This is the latest recevied weather packets stored in our database for station/object KD8DLP-13. If no packets are shown the sender has not sent any weather packets the latest 10 day(s).
| Time | Temp. | Humidity | Pressure | Rain* | Wind** | Luminosity | Snow |
|---|---|---|---|---|---|---|---|
| 1777406659 | 16.11° C | 62% | 1014.4 hPa | 0 mm | - | 589 W/m² | - |
| 1777406356 | 16.11° C | 64% | 1014.4 hPa | 0 mm | - | 609 W/m² | - |
| 1777406055 | 16.11° C | 63% | 1014.2 hPa | 0 mm | - | 611 W/m² | - |
| 1777405752 | 16.11° C | 63% | 1014.3 hPa | 0 mm | - | 622 W/m² | - |
| 1777405448 | 16.11° C | 66% | 1014.2 hPa | 0 mm | - | 630 W/m² | - |
| 1777405146 | 15.56° C | 63% | 1014.4 hPa | 0 mm | - | 638 W/m² | - |
| 1777404844 | 15.56° C | 64% | 1014.4 hPa | 0 mm | - | 656 W/m² | - |
| 1777404541 | 15.56° C | 64% | 1014.5 hPa | 0 mm | - | 682 W/m² | - |
| 1777404236 | 15.56° C | 67% | 1014.3 hPa | 0 mm | - | 715 W/m² | - |
| 1777403933 | 16.11° C | 64% | 1014.2 hPa | 0 mm | - | 669 W/m² | - |
| 1777403632 | 16.11° C | 64% | 1014 hPa | 0 mm | - | 753 W/m² | - |
| 1777403327 | 15.56° C | 65% | 1014.2 hPa | 0 mm | - | 364 W/m² | - |
| 1777403021 | 15° C | 67% | 1014 hPa | 0 mm | - | 519 W/m² | - |
| 1777402717 | 15° C | 66% | 1014 hPa | 0 mm | - | 636 W/m² | - |
| 1777402412 | 16.11° C | 63% | 1013.8 hPa | 0 mm | - | 723 W/m² | - |
| 1777402111 | 16.11° C | 66% | 1013.7 hPa | 0 mm | - | 684 W/m² | - |
| 1777401806 | 16.11° C | 64% | 1013.7 hPa | 0 mm | - | 780 W/m² | - |
| 1777401505 | 16.67° C | 63% | 1013.6 hPa | 0 mm | - | 757 W/m² | - |
| 1777401201 | 16.67° C | 66% | 1013.6 hPa | 0 mm | - | 783 W/m² | - |
| 1777400897 | 15.56° C | 68% | 1013.6 hPa | 0 mm | - | 913 W/m² | - |
| 1777400593 | 15° C | 69% | 1013.4 hPa | 0 mm | - | 824 W/m² | - |
| 1777400291 | 15° C | 69% | 1013.5 hPa | 0 mm | - | 772 W/m² | - |
| 1777399987 | 15° C | 70% | 1013.7 hPa | 0 mm | - | 748 W/m² | - |
| 1777399684 | 14.44° C | 73% | 1013.6 hPa | 0 mm | - | 795 W/m² | - |
| 1777399381 | 14.44° C | 70% | 1013.7 hPa | 0 mm | - | 796 W/m² | - |
* Rain latest hour (hover to see other rain measurements)
** Current wind speed in m/s (hover to see current wind gust speed)